This is the latest recevied weather packets stored in our database for station/object K1WJY. If no packets are shown the sender has not sent any weather packets the latest 1 day(s).
| Time | Temp. | Humidity | Pressure | Rain* | Wind** | Luminosity | Snow |
|---|---|---|---|---|---|---|---|
| 1778068793 | 11.67° C | 96% | 1014 hPa | 0 mm | - | 132 W/m² | - |
| 1778068491 | 11.67° C | 96% | 1013.9 hPa | 0 mm | - | 123 W/m² | - |
| 1778068189 | 11.67° C | 96% | 1014 hPa | 0 mm | - | 87 W/m² | - |
| 1778067886 | 11.67° C | 96% | 1013.7 hPa | 0 mm | - | 45 W/m² | - |
| 1778067282 | 12.22° C | 96% | 1013.7 hPa | 0 mm | - | 160 W/m² | - |
| 1778066978 | 11.67° C | 96% | 1013.7 hPa | 0 mm | - | 181 W/m² | - |
| 1778066676 | 11.67° C | 96% | 1013.4 hPa | 0 mm | - | 138 W/m² | - |
| 1778066373 | 11.67° C | 96% | 1013.5 hPa | 0 mm | - | 127 W/m² | - |
| 1778065768 | 11.67° C | 96% | 1013.7 hPa | 0 mm | - | 117 W/m² | - |
| 1778065162 | 11.67° C | 96% | 1013.7 hPa | 0 mm | - | 75 W/m² | - |
| 1778064556 | 11.11° C | 97% | 1013.9 hPa | 0 mm | - | 104 W/m² | - |
| 1778064254 | 11.11° C | 97% | 1013.9 hPa | 0 mm | - | 103 W/m² | - |
| 1778063649 | 10.56° C | 98% | 1013.4 hPa | 0 mm | - | 72 W/m² | - |
| 1778063044 | 10.56° C | 98% | 1013.5 hPa | 0 mm | - | 56 W/m² | - |
| 1778062134 | 10.56° C | 98% | 1013.3 hPa | 0 mm | - | 32 W/m² | - |
| 1778061833 | 10.56° C | 98% | 1013.6 hPa | 0 mm | - | 32 W/m² | - |
| 1778061228 | 10.56° C | 98% | 1013.3 hPa | 0 mm | - | 15 W/m² | - |
| 1778060321 | 10.56° C | 98% | 1013.4 hPa | 0 mm | - | 4 W/m² | - |
| 1778060018 | 10.56° C | 98% | 1013.5 hPa | 0 mm | - | 2 W/m² | - |
| 1778059110 | 10.56° C | 98% | 1013.4 hPa | 0 mm | - | 0 W/m² | - |
| 1778058808 | 10.56° C | 98% | 1013.2 hPa | 0 mm | - | 0 W/m² | - |
| 1778058505 | 10.56° C | 97% | 1013.2 hPa | 0 mm | - | 0 W/m² | - |
| 1778057899 | 10.56° C | 97% | 1013.1 hPa | 0 mm | - | 0 W/m² | - |
| 1778056685 | 10.56° C | 97% | 1012.6 hPa | 0 mm | - | 0 W/m² | - |
| 1778056383 | 10.56° C | 96% | 1012.5 hPa | 0 mm | - | 0 W/m² | - |
* Rain latest hour (hover to see other rain measurements)
** Current wind speed in m/s (hover to see current wind gust speed)